Погода в Круглоозерном

Россия / Новосибирская область     55°04′45″N   79°17′49″E
темп.,
°C
ветер,
м/с
пор.,
м/с
влажн.,
%
обл.,
%
осадки,
мм/ч
давл.,
гПа
погр.,
м
29 ноября, пн
пн2901:00−11юз3896100 0.0 1035127
04:00−11ююз3995100 0.0 1035141
07:00−13ююз379587 0.0 1035106
10:00−13ююз3893100 0.0 1034129
13:00−10ююз4988100 0.0 1033215
16:00−10ююз3987100 0.0 1032183
19:00−12ююз4986100 0.0 1031130
22:00−11ююз41085100 0.0 1030149
30 ноября, вт
вт3001:00−11ююз41184100 0.0 1029170
04:00−10ююз41083100 0.0 1028161
07:00−10ююз41083100 0.0 1027150
10:00−11ююз3983100 0.0 1027135
13:00−9юз388399 0.0 1026162
16:00−10ююз378557 0.0 1026102
19:00−15юз25885 0.0 102642
22:00−17ююз22905 0.0 102735
1 декабря, ср
ср101:00−17ююз248824 0.0 102743
04:00−17ююз34895 0.0 102750
07:00−16ю369022 0.0 102667
10:00−15ю388733 0.0 1026102
13:00−11ююз4128643 0.0 1026229
16:00−9ююз4118779 0.0 1024220
19:00−10ююз41190100 0.0 1024163
22:00−11ююз41289100 0.0 1024165
2 декабря, чт
чт201:00−9ююз51286100 0.0 1022191
04:00−11ю3888100 0.0 1022125
07:00−9ю41087100 0.0 1021160
10:00−9ю41187100 0.0 1020180
13:00−7ю51384100 0.0 1019235
16:00−5ю51383100 0.0 1017251
19:00−4ю61581100 0.0 1015266
22:00−2ю61779100 0.0 1013324
3 декабря, пт
пт301:00−2ю61580100 0.0 1011325
04:000ю71781100 0.0 1008385
07:00+1ю81880100 0.0 1005494
10:00−1ююз71782100 0.0 1004464
13:000зюз91698100 0.4 1005805
16:000з101682100 0.2 1008932
19:00−4зюз8158775 0.3 1013677
22:00−5зюз71589100 0.0 1015536